Regional Weather Roundup
Issued by NWS Little Rock, AR

Home | Current Version | Previous Version | Graphics & Text | Print | Product List | Glossary On
Versions: 1 2 3 4 5 6 7 8 9 10 11 12 13 14 15 16 17 18 19 20 21 22 23 24 25 26 27 28 29 30 31 32 33 34 35 36 37 38 39 40 41 42 43 44 45 46 47 48 49 50
000
ASUS44 KLZK 020705
RWRLZK

WEATHER ROUNDUP FOR ARKANSAS
NATIONAL WEATHER SERVICE LITTLE ROCK AR
200 AM CDT TUE SEP 02 2014

NOTE: "FAIR" INDICATES FEW OR NO CLOUDS BELOW 12,000 FEET WITH NO
SIGNIFICANT WEATHER AND/OR OBSTRUCTIONS TO VISIBILITY.

ARZ001-003-010-029-020800-
NORTHWEST ARKANSAS

CITY           SKY/WX    TMP DP  RH WIND       PRES   REMARKS
FAYETTEVILLE   CLOUDY    76  71  85 S5        29.92F
FORT SMITH     MOCLDY    79  72  79 CALM      29.89F
HARRISON       CLOUDY    76  71  85 SE10      29.95F
BENTONVILLE    CLOUDY    75  70  83 SE7       29.93S
ROGERS         CLOUDY    76  70  82 SE7       29.94R
HIGHFILL       CLOUDY    75  70  84 CALM      29.93R
$$

ARZ004-005-016-020800-
NORTH CENTRAL ARKANSAS

CITY           SKY/WX    TMP DP  RH WIND       PRES   REMARKS
BATESVILLE     CLOUDY    79  73  83 W5        29.97S
FLIPPIN        CLOUDY    75  68  78 CALM      29.95F
MTN HOME       CLOUDY    75  72  90 CALM      29.94F
$$

ARZ040-041-020800-
WEST CENTRAL ARKANSAS

CITY           SKY/WX    TMP DP  RH WIND       PRES   REMARKS
MENA           MOCLDY    81  73  78 CALM      29.94F HX  85
MOUNT IDA      MOCLDY    80  73  79 CALM      29.92F
$$

ARZ009-017-025-026-028-020800-
NORTHEAST ARKANSAS

CITY           SKY/WX    TMP DP  RH WIND       PRES   REMARKS
CORNING          N/A     77  73  88 SW8       29.97S
JONESBORO      MOCLDY    79  72  79 SW13      29.96F
NEWPORT        MOCLDY    77  74  90 S12       29.96F
WALNUT RIDGE   CLOUDY    77  59  53 SW5       29.96F
BLYTHEVILLE    MOCLDY    77  73  87 SW7       29.98R
$$

ARZ022-023-033-042-044-020800-
CENTRAL ARKANSAS

CITY           SKY/WX    TMP DP  RH WIND       PRES   REMARKS
LITTLE ROCK    PTCLDY    77  73  87 CALM      29.95F
N LITTLE ROCK    N/A     78  75  91 S5        29.95F
JACKSONVILLE   MOCLDY    79  74  87 S6        29.95F
SEARCY         MOCLDY    76  74  93 W5        29.96F
HOT SPRINGS    MOCLDY    80  73  79 SW8       29.95F
RUSSELLVILLE   CLOUDY    76  72  87 E3        29.92F
CLINTON        CLOUDY    75  75 100 CALM      29.96F FOG
$$

ARZ036-020800-
EAST ARKANSAS

CITY           SKY/WX    TMP DP  RH WIND       PRES   REMARKS
WEST MEMPHIS   PTCLDY    77  73  87 S7        29.98R
$$

ARZ050-053-066-070-073-020800-
SOUTHWEST ARKANSAS

CITY           SKY/WX    TMP DP  RH WIND       PRES   REMARKS
ARKADELPHIA    FAIR      76  75  96 CALM      29.95F
CAMDEN         CLEAR     75  72  88 S7        29.96F
TEXARKANA      CLEAR     78  75  90 S9        29.94F
EL DORADO      CLEAR     75  73  93 SE6       29.98S
DE QUEEN       CLEAR     78  73  84 CALM      29.91F
$$

ARZ056-057-069-020800-
SOUTHEAST ARKANSAS

CITY           SKY/WX    TMP DP  RH WIND       PRES   REMARKS
PINE BLUFF     CLEAR     75  72  90 S8        29.97F
STUTTGART      CLEAR     77  72  83 S12       29.98S
MONTICELLO     CLEAR     75  73  93 S5        30.00R

$$





USA.gov is the U.S. government's official web portal to all federal, state and local government web resources and services.